TAM8067 SPJC-SBCG

Flight info

Callsign TAM8067
Flight time 3h 3m
Altitude 35000
Route KULIS UM415 VIR UM411 ATERU UZ42 IRIPI
Aircraft A321/M-SDE3FGHIRWY/LB1

Departure

Time 2026-04-26 20:36
Airport Jorge Chávez International Airport (SPJC)

Arrival

Time 2026-04-26 23:39
Airport Campo Grande Airport (SBCG)
Time Latitude Longitude Altitude Speed Heading
2026-04-26 20:19 -12.02308 -77.10965 105 ft 0 kts 64°
2026-04-26 20:28 -12.02317 -77.10985 104 ft 4 kts 64°
2026-04-26 20:28 -12.02329 -77.11010 104 ft 4 kts 60°
2026-04-26 20:28 -12.02345 -77.11031 102 ft 4 kts 37°
2026-04-26 20:28 -12.02367 -77.11041 102 ft 4 kts 353°
2026-04-26 20:29 -12.02381 -77.11037 103 ft 1 kts 334°
2026-04-26 20:29 -12.02382 -77.11037 103 ft 0 kts 334°
2026-04-26 20:31 -12.02373 -77.11049 102 ft 5 kts 300°
2026-04-26 20:31 -12.02341 -77.11076 103 ft 7 kts 330°
2026-04-26 20:31 -12.02288 -77.11088 102 ft 9 kts 348°
2026-04-26 20:31 -12.02211 -77.11107 101 ft 13 kts 358°
2026-04-26 20:32 -12.02121 -77.11127 99 ft 14 kts 335°
2026-04-26 20:32 -12.02026 -77.11175 98 ft 16 kts 334°
2026-04-26 20:32 -12.01937 -77.11249 94 ft 17 kts 301°
2026-04-26 20:32 -12.01876 -77.11361 91 ft 18 kts 315°
2026-04-26 20:33 -12.01764 -77.11431 88 ft 20 kts 333°
2026-04-26 20:33 -12.01635 -77.11494 88 ft 21 kts 334°
2026-04-26 20:33 -12.01498 -77.11562 85 ft 23 kts 334°
2026-04-26 20:33 -12.01354 -77.11634 82 ft 24 kts 334°
2026-04-26 20:34 -12.01203 -77.11709 74 ft 25 kts 335°
2026-04-26 20:34 -12.01045 -77.11787 68 ft 26 kts 333°
2026-04-26 20:34 -12.00883 -77.11872 67 ft 27 kts 333°
2026-04-26 20:34 -12.00715 -77.11953 63 ft 24 kts 325°
2026-04-26 20:35 -12.00739 -77.12087 58 ft 28 kts 205°
2026-04-26 20:35 -12.01069 -77.11994 61 ft 85 kts 153°
2026-04-26 20:35 -12.01813 -77.11618 83 ft 150 kts 154°
2026-04-26 20:35 -12.02904 -77.11069 181 ft 196 kts 157°
2026-04-26 20:36 -12.04188 -77.10476 740 ft 205 kts 159°
2026-04-26 20:36 -12.05475 -77.09881 1443 ft 202 kts 156°
2026-04-26 20:36 -12.06787 -77.09232 1628 ft 219 kts 156°
2026-04-26 20:36 -12.08221 -77.08511 1847 ft 238 kts 156°
2026-04-26 20:37 -12.09753 -77.07741 2303 ft 252 kts 155°
2026-04-26 20:37 -12.11362 -77.06935 2800 ft 262 kts 153°
2026-04-26 20:37 -12.13009 -77.06111 3303 ft 271 kts 153°
2026-04-26 20:37 -12.14711 -77.05264 3775 ft 273 kts 154°
2026-04-26 20:38 -12.16408 -77.04367 4280 ft 275 kts 144°
2026-04-26 20:38 -12.17881 -77.03108 4874 ft 278 kts 136°
2026-04-26 20:38 -12.19256 -77.01702 5483 ft 281 kts 133°
2026-04-26 20:38 -12.20606 -77.00237 6059 ft 284 kts 133°
2026-04-26 20:39 -12.21960 -76.98755 6621 ft 287 kts 133°
2026-04-26 20:39 -12.22889 -76.97751 7010 ft 288 kts 134°
2026-04-26 20:39 -12.24982 -76.96063 7741 ft 291 kts 146°
2026-04-26 20:39 -12.26657 -76.94894 8297 ft 293 kts 146°
2026-04-26 20:40 -12.28352 -76.93721 8843 ft 295 kts 146°
2026-04-26 20:40 -12.30062 -76.92539 9400 ft 297 kts 146°
2026-04-26 20:40 -12.31773 -76.91357 9932 ft 299 kts 146°
2026-04-26 20:40 -12.33520 -76.90148 10231 ft 310 kts 146°
2026-04-26 20:41 -12.35352 -76.88881 10345 ft 326 kts 146°
2026-04-26 20:41 -12.37281 -76.87546 10470 ft 342 kts 146°
2026-04-26 20:41 -12.39297 -76.86153 10583 ft 357 kts 146°
2026-04-26 20:41 -12.41394 -76.84702 10704 ft 371 kts 146°
2026-04-26 20:42 -12.43547 -76.83209 11034 ft 376 kts 146°
2026-04-26 20:42 -12.45726 -76.81698 11458 ft 380 kts 146°
2026-04-26 20:42 -12.47923 -76.80176 11887 ft 383 kts 146°
2026-04-26 20:42 -12.50131 -76.78649 12345 ft 385 kts 146°
2026-04-26 20:43 -12.52361 -76.77110 12800 ft 387 kts 146°
2026-04-26 20:43 -12.54607 -76.75558 13234 ft 390 kts 146°
2026-04-26 20:43 -12.56855 -76.73999 13672 ft 392 kts 146°
2026-04-26 20:43 -12.59118 -76.72425 14046 ft 395 kts 146°
2026-04-26 20:44 -12.61398 -76.70837 14433 ft 397 kts 145°
2026-04-26 20:44 -12.63688 -76.69243 14810 ft 400 kts 145°
2026-04-26 20:44 -12.66000 -76.67638 15191 ft 402 kts 145°
2026-04-26 20:44 -12.68325 -76.66026 15564 ft 405 kts 145°
2026-04-26 20:45 -12.70669 -76.64402 15962 ft 408 kts 145°
2026-04-26 20:45 -12.73014 -76.62757 16328 ft 410 kts 142°
2026-04-26 20:45 -12.75127 -76.60798 16700 ft 411 kts 130°
2026-04-26 20:45 -12.76839 -76.58488 17070 ft 412 kts 121°
2026-04-26 20:46 -12.78167 -76.55845 17451 ft 414 kts 113°
2026-04-26 20:46 -12.79336 -76.53177 17837 ft 416 kts 113°
2026-04-26 20:46 -12.80523 -76.50467 18211 ft 419 kts 112°
2026-04-26 20:46 -12.81717 -76.47732 18564 ft 420 kts 112°
2026-04-26 20:47 -12.82913 -76.44993 18890 ft 422 kts 113°
2026-04-26 20:47 -12.83726 -76.43131 19104 ft 423 kts 113°
2026-04-26 20:47 -12.85321 -76.39474 19506 ft 426 kts 113°
2026-04-26 20:47 -12.86529 -76.36699 19811 ft 428 kts 113°
2026-04-26 20:48 -12.87747 -76.33906 20132 ft 429 kts 113°
2026-04-26 20:48 -12.88967 -76.31112 20428 ft 431 kts 113°
2026-04-26 20:48 -12.90193 -76.28303 20733 ft 432 kts 114°
2026-04-26 20:48 -12.91419 -76.25486 21009 ft 434 kts 113°
2026-04-26 20:49 -12.92652 -76.22653 21279 ft 436 kts 113°
2026-04-26 20:49 -12.93891 -76.19809 21592 ft 437 kts 114°
2026-04-26 20:49 -12.95129 -76.16962 21870 ft 439 kts 113°
2026-04-26 20:49 -12.96373 -76.14099 22125 ft 441 kts 113°
2026-04-26 20:50 -12.97622 -76.11227 22353 ft 442 kts 114°
2026-04-26 20:50 -12.98876 -76.08346 22633 ft 443 kts 113°
2026-04-26 20:50 -13.00135 -76.05451 22896 ft 445 kts 114°
2026-04-26 20:50 -13.01396 -76.02543 23101 ft 447 kts 114°
2026-04-26 20:51 -13.02664 -75.99619 23359 ft 449 kts 114°
2026-04-26 20:51 -13.03932 -75.96697 23623 ft 450 kts 114°
2026-04-26 20:51 -13.05195 -75.93791 23810 ft 452 kts 114°
2026-04-26 20:51 -13.06473 -75.90843 24050 ft 453 kts 114°
2026-04-26 20:52 -13.07758 -75.87880 24260 ft 455 kts 114°
2026-04-26 20:52 -13.09046 -75.84917 24445 ft 456 kts 114°
2026-04-26 20:52 -13.10344 -75.81930 24615 ft 458 kts 114°
2026-04-26 20:52 -13.11640 -75.78942 24837 ft 459 kts 114°
2026-04-26 20:53 -13.12940 -75.75939 25039 ft 462 kts 113°
2026-04-26 20:53 -13.14246 -75.72916 25212 ft 464 kts 114°
2026-04-26 20:53 -13.15557 -75.69878 25390 ft 465 kts 113°
2026-04-26 20:53 -13.16867 -75.66843 25595 ft 467 kts 114°
2026-04-26 20:54 -13.18187 -75.63787 25803 ft 468 kts 114°
2026-04-26 20:54 -13.19507 -75.60731 25979 ft 470 kts 113°
2026-04-26 20:54 -13.20832 -75.57663 26169 ft 471 kts 113°
2026-04-26 20:54 -13.22160 -75.54588 26347 ft 472 kts 113°
2026-04-26 20:55 -13.23493 -75.51494 26529 ft 474 kts 113°
2026-04-26 20:55 -13.24825 -75.48395 26745 ft 475 kts 113°
2026-04-26 20:55 -13.26164 -75.45288 26942 ft 477 kts 113°
2026-04-26 20:55 -13.27515 -75.42164 27134 ft 478 kts 113°
2026-04-26 20:56 -13.28863 -75.39047 27283 ft 480 kts 112°
2026-04-26 20:56 -13.30222 -75.35899 27450 ft 482 kts 113°
2026-04-26 20:56 -13.31579 -75.32751 27685 ft 483 kts 114°
2026-04-26 20:56 -13.32936 -75.29602 27977 ft 482 kts 112°
2026-04-26 20:57 -13.34292 -75.26452 28246 ft 481 kts 113°
2026-04-26 20:57 -13.35643 -75.23313 28497 ft 481 kts 113°
2026-04-26 20:57 -13.36994 -75.20168 28751 ft 481 kts 113°
2026-04-26 20:57 -13.38341 -75.17029 29011 ft 481 kts 112°
2026-04-26 20:58 -13.39689 -75.13884 29251 ft 481 kts 113°
2026-04-26 20:58 -13.41038 -75.10739 29493 ft 480 kts 113°
2026-04-26 20:58 -13.42383 -75.07602 29810 ft 479 kts 112°
2026-04-26 20:58 -13.43726 -75.04478 30024 ft 480 kts 113°
2026-04-26 20:59 -13.45077 -75.01331 30188 ft 482 kts 112°
2026-04-26 20:59 -13.46431 -74.98175 30384 ft 482 kts 112°
2026-04-26 20:59 -13.47779 -74.95027 30567 ft 482 kts 112°
2026-04-26 20:59 -13.49130 -74.91870 30750 ft 483 kts 112°
2026-04-26 21:00 -13.50026 -74.89777 30903 ft 482 kts 113°
2026-04-26 21:00 -13.51370 -74.86632 31155 ft 481 kts 112°
2026-04-26 21:00 -13.53150 -74.82460 31413 ft 481 kts 112°
2026-04-26 21:00 -13.54494 -74.79314 31632 ft 481 kts 112°
2026-04-26 21:01 -13.55401 -74.77196 31785 ft 479 kts 112°
2026-04-26 21:01 -13.56744 -74.74060 32001 ft 479 kts 112°
2026-04-26 21:01 -13.58083 -74.70929 32197 ft 479 kts 113°
2026-04-26 21:01 -13.59422 -74.67797 32437 ft 478 kts 112°
2026-04-26 21:02 -13.60756 -74.64674 32686 ft 477 kts 112°
2026-04-26 21:02 -13.62088 -74.61551 32852 ft 477 kts 112°
2026-04-26 21:02 -13.63420 -74.58423 33087 ft 476 kts 112°
2026-04-26 21:02 -13.64743 -74.55317 33329 ft 475 kts 112°
2026-04-26 21:03 -13.66073 -74.52199 33524 ft 475 kts 112°
2026-04-26 21:03 -13.67399 -74.49091 33748 ft 474 kts 112°
2026-04-26 21:03 -13.68722 -74.45983 33985 ft 474 kts 112°
2026-04-26 21:03 -13.70025 -74.42917 34160 ft 473 kts 112°
2026-04-26 21:04 -13.71359 -74.39774 34329 ft 473 kts 112°
2026-04-26 21:04 -13.72672 -74.36683 34538 ft 472 kts 112°
2026-04-26 21:04 -13.73987 -74.33592 34709 ft 471 kts 112°
2026-04-26 21:04 -13.75301 -74.30505 34847 ft 472 kts 112°
2026-04-26 21:05 -13.76618 -74.27412 34989 ft 472 kts 113°
2026-04-26 21:05 -13.79243 -74.21220 35022 ft 473 kts 112°
2026-04-26 21:06 -13.81878 -74.15007 35019 ft 473 kts 112°
2026-04-26 21:06 -13.84513 -74.08791 35030 ft 474 kts 112°
2026-04-26 21:07 -13.87130 -74.02618 35024 ft 474 kts 112°
2026-04-26 21:07 -13.89781 -73.96358 35024 ft 474 kts 112°
2026-04-26 21:08 -13.92390 -73.90167 35018 ft 474 kts 112°
2026-04-26 21:08 -13.95013 -73.83935 35024 ft 474 kts 112°
2026-04-26 21:09 -13.97642 -73.77703 35040 ft 474 kts 112°
2026-04-26 21:09 -14.00270 -73.71482 35043 ft 474 kts 112°
2026-04-26 21:10 -14.02901 -73.65254 35040 ft 474 kts 112°
2026-04-26 21:10 -14.05527 -73.59010 35039 ft 475 kts 112°
2026-04-26 21:11 -14.08149 -73.52752 35058 ft 476 kts 112°
2026-04-26 21:11 -14.10785 -73.46490 35041 ft 477 kts 113°
2026-04-26 21:12 -14.13421 -73.40226 35045 ft 477 kts 113°
2026-04-26 21:12 -14.16053 -73.33960 35041 ft 477 kts 112°
2026-04-26 21:13 -14.18690 -73.27673 35052 ft 477 kts 112°
2026-04-26 21:13 -14.21303 -73.21432 35069 ft 477 kts 112°
2026-04-26 21:14 -14.23927 -73.15155 35067 ft 477 kts 113°
2026-04-26 21:14 -14.26556 -73.08880 35083 ft 477 kts 113°
2026-04-26 21:15 -14.29176 -73.02602 35084 ft 477 kts 112°
2026-04-26 21:15 -14.31796 -72.96317 35111 ft 476 kts 112°
2026-04-26 21:16 -14.34415 -72.90043 35125 ft 476 kts 113°
2026-04-26 21:16 -14.37033 -72.83767 35126 ft 476 kts 113°
2026-04-26 21:17 -14.39645 -72.77495 35135 ft 476 kts 113°
2026-04-26 21:17 -14.42256 -72.71218 35137 ft 476 kts 113°
2026-04-26 21:18 -14.44863 -72.64937 35131 ft 476 kts 113°
2026-04-26 21:18 -14.47474 -72.58659 35132 ft 476 kts 113°
2026-04-26 21:19 -14.50066 -72.52417 35100 ft 477 kts 113°
2026-04-26 21:19 -14.52691 -72.46081 35101 ft 477 kts 113°
2026-04-26 21:20 -14.55282 -72.39822 35134 ft 477 kts 113°
2026-04-26 21:20 -14.57887 -72.33519 35106 ft 478 kts 113°
2026-04-26 21:21 -14.60492 -72.27213 35108 ft 478 kts 113°
2026-04-26 21:21 -14.63103 -72.20907 35084 ft 478 kts 113°
2026-04-26 21:22 -14.65722 -72.14592 35128 ft 478 kts 113°
2026-04-26 21:22 -14.68321 -72.08280 35111 ft 478 kts 112°
2026-04-26 21:23 -14.72216 -71.98805 35109 ft 478 kts 112°
2026-04-26 21:23 -14.74812 -71.92489 35094 ft 477 kts 112°
2026-04-26 21:24 -14.77402 -71.86171 35127 ft 477 kts 112°
2026-04-26 21:24 -14.79998 -71.79852 35106 ft 478 kts 112°
2026-04-26 21:25 -14.82588 -71.73534 35108 ft 478 kts 112°
2026-04-26 21:25 -14.85190 -71.67215 35084 ft 478 kts 112°
2026-04-26 21:26 -14.87784 -71.60890 35082 ft 478 kts 112°
2026-04-26 21:26 -14.90371 -71.54557 35089 ft 478 kts 112°
2026-04-26 21:27 -14.92949 -71.48227 35092 ft 477 kts 112°
2026-04-26 21:27 -14.95518 -71.41941 35092 ft 478 kts 112°
2026-04-26 21:28 -14.98103 -71.35613 35088 ft 478 kts 112°
2026-04-26 21:28 -15.00685 -71.29284 35121 ft 478 kts 112°
2026-04-26 21:29 -15.03272 -71.22957 35120 ft 478 kts 112°
2026-04-26 21:29 -15.05841 -71.16626 35119 ft 477 kts 112°
2026-04-26 21:30 -15.08405 -71.10286 35116 ft 477 kts 112°
2026-04-26 21:30 -15.10975 -71.03947 35155 ft 478 kts 112°
2026-04-26 21:31 -15.13552 -70.97610 35147 ft 478 kts 112°
2026-04-26 21:31 -15.16130 -70.91278 35153 ft 477 kts 112°
2026-04-26 21:32 -15.18692 -70.84940 35141 ft 477 kts 112°
2026-04-26 21:32 -15.21250 -70.78604 35141 ft 476 kts 112°
2026-04-26 21:33 -15.23803 -70.72289 35148 ft 476 kts 112°
2026-04-26 21:33 -15.26357 -70.65968 35146 ft 475 kts 112°
2026-04-26 21:34 -15.28909 -70.59654 35103 ft 475 kts 112°
2026-04-26 21:34 -15.31455 -70.53339 35102 ft 475 kts 112°
2026-04-26 21:35 -15.33994 -70.47013 35085 ft 476 kts 112°
2026-04-26 21:35 -15.36533 -70.40690 35084 ft 476 kts 112°
2026-04-26 21:36 -15.38654 -70.35421 35085 ft 476 kts 112°
2026-04-26 21:36 -15.40362 -70.31179 35424 ft 476 kts 112°
2026-04-26 21:36 -15.41634 -70.28012 35490 ft 476 kts 112°
2026-04-26 21:37 -15.44178 -70.21673 35568 ft 476 kts 112°
2026-04-26 21:37 -15.46712 -70.15339 35564 ft 476 kts 111°
2026-04-26 21:38 -15.47915 -70.12136 35047 ft 476 kts 109°
2026-04-26 21:38 -15.49002 -70.08948 35049 ft 475 kts 107°
2026-04-26 21:38 -15.51036 -70.02432 35044 ft 475 kts 107°
2026-04-26 21:39 -15.53068 -69.95906 35045 ft 476 kts 107°
2026-04-26 21:39 -15.55185 -69.89398 35057 ft 476 kts 108°
2026-04-26 21:40 -15.57329 -69.82913 35052 ft 476 kts 108°
2026-04-26 21:40 -15.59469 -69.76397 35055 ft 477 kts 107°
2026-04-26 21:41 -15.61595 -69.69848 35044 ft 483 kts 107°
2026-04-26 21:41 -15.63754 -69.63199 35042 ft 489 kts 108°
2026-04-26 21:42 -15.65934 -69.56497 35040 ft 491 kts 107°
2026-04-26 21:42 -15.68109 -69.49782 35041 ft 492 kts 107°
2026-04-26 21:43 -15.69922 -69.44179 35051 ft 493 kts 108°
2026-04-26 21:43 -15.72460 -69.36334 35074 ft 493 kts 107°
2026-04-26 21:44 -15.74564 -69.29553 35063 ft 493 kts 106°
2026-04-26 21:44 -15.76293 -69.23863 35074 ft 494 kts 106°
2026-04-26 21:45 -15.78367 -69.17065 35072 ft 494 kts 107°
2026-04-26 21:45 -15.80461 -69.10266 35079 ft 494 kts 107°
2026-04-26 21:46 -15.82561 -69.03469 35076 ft 494 kts 107°
2026-04-26 21:46 -15.84652 -68.96675 35087 ft 495 kts 107°
2026-04-26 21:47 -15.86742 -68.89865 35089 ft 495 kts 107°
2026-04-26 21:47 -15.88826 -68.83057 35114 ft 494 kts 107°
2026-04-26 21:48 -15.90901 -68.76256 35120 ft 493 kts 107°
2026-04-26 21:48 -15.92972 -68.69461 35138 ft 492 kts 107°
2026-04-26 21:49 -15.95039 -68.62686 35114 ft 492 kts 107°
2026-04-26 21:49 -15.97098 -68.55945 35132 ft 493 kts 107°
2026-04-26 21:50 -15.99166 -68.49160 35132 ft 493 kts 107°
2026-04-26 21:50 -16.01234 -68.42318 35147 ft 492 kts 107°
2026-04-26 21:51 -16.03300 -68.35590 35146 ft 492 kts 107°
2026-04-26 21:51 -16.05386 -68.28817 35141 ft 492 kts 107°
2026-04-26 21:52 -16.07455 -68.22035 35143 ft 492 kts 107°
2026-04-26 21:52 -16.09523 -68.15260 35124 ft 492 kts 107°
2026-04-26 21:53 -16.11606 -68.08485 35125 ft 492 kts 107°
2026-04-26 21:53 -16.13688 -68.01714 35132 ft 491 kts 107°
2026-04-26 21:54 -16.15761 -67.94940 35132 ft 491 kts 107°
2026-04-26 21:54 -16.17834 -67.88169 35124 ft 491 kts 107°
2026-04-26 21:55 -16.19900 -67.81396 35126 ft 491 kts 107°
2026-04-26 21:55 -16.21968 -67.74620 35110 ft 492 kts 107°
2026-04-26 21:56 -16.24036 -67.67831 35128 ft 492 kts 107°
2026-04-26 21:56 -16.26130 -67.61056 35113 ft 492 kts 107°
2026-04-26 21:57 -16.28243 -67.54277 35107 ft 492 kts 107°
2026-04-26 21:57 -16.30350 -67.47502 35107 ft 492 kts 107°
2026-04-26 21:58 -16.32449 -67.40720 35101 ft 492 kts 107°
2026-04-26 21:58 -16.34540 -67.33942 35126 ft 492 kts 107°
2026-04-26 21:59 -16.36624 -67.27159 35129 ft 492 kts 107°
2026-04-26 21:59 -16.38713 -67.20381 35130 ft 491 kts 107°
2026-04-26 22:00 -16.40805 -67.13606 35138 ft 491 kts 107°
2026-04-26 22:00 -16.42886 -67.06833 35165 ft 491 kts 107°
2026-04-26 22:01 -16.44964 -67.00057 35171 ft 491 kts 107°
2026-04-26 22:01 -16.47042 -66.93271 35173 ft 491 kts 107°
2026-04-26 22:02 -16.49113 -66.86491 35181 ft 491 kts 107°
2026-04-26 22:02 -16.51189 -66.79691 35182 ft 492 kts 107°
2026-04-26 22:03 -16.53268 -66.72898 35216 ft 492 kts 107°
2026-04-26 22:03 -16.55341 -66.66094 35215 ft 492 kts 107°
2026-04-26 22:04 -16.57413 -66.59285 35215 ft 492 kts 107°
2026-04-26 22:04 -16.59472 -66.52539 35216 ft 492 kts 107°
2026-04-26 22:05 -16.61542 -66.45727 35249 ft 492 kts 107°
2026-04-26 22:05 -16.63599 -66.38926 35249 ft 492 kts 107°
2026-04-26 22:06 -16.65660 -66.32130 35239 ft 492 kts 107°
2026-04-26 22:06 -16.67735 -66.25334 35234 ft 492 kts 107°
2026-04-26 22:07 -16.69814 -66.18515 35204 ft 493 kts 107°
2026-04-26 22:07 -16.71893 -66.11692 35209 ft 493 kts 107°
2026-04-26 22:08 -16.73961 -66.04865 35209 ft 493 kts 107°
2026-04-26 22:08 -16.76033 -65.98043 35168 ft 494 kts 107°
2026-04-26 22:09 -16.78101 -65.91211 35174 ft 494 kts 107°
2026-04-26 22:09 -16.80170 -65.84378 35164 ft 493 kts 107°
2026-04-26 22:10 -16.82235 -65.77555 35168 ft 493 kts 107°
2026-04-26 22:10 -16.84301 -65.70728 35114 ft 493 kts 107°
2026-04-26 22:11 -16.86416 -65.63925 35117 ft 493 kts 108°
2026-04-26 22:11 -16.88554 -65.57132 35109 ft 493 kts 108°
2026-04-26 22:12 -16.90672 -65.50328 35121 ft 493 kts 108°
2026-04-26 22:12 -16.92776 -65.43506 35087 ft 493 kts 108°
2026-04-26 22:13 -16.94869 -65.36730 35088 ft 494 kts 108°
2026-04-26 22:13 -16.96981 -65.29908 35059 ft 494 kts 108°
2026-04-26 22:14 -16.99091 -65.23083 35033 ft 494 kts 108°
2026-04-26 22:14 -17.01197 -65.16254 35036 ft 494 kts 108°
2026-04-26 22:15 -17.03304 -65.09416 35026 ft 494 kts 108°
2026-04-26 22:15 -17.05411 -65.02571 35026 ft 494 kts 108°
2026-04-26 22:16 -17.07516 -64.95728 35039 ft 495 kts 108°
2026-04-26 22:16 -17.09613 -64.88884 35034 ft 495 kts 107°
2026-04-26 22:17 -17.11707 -64.82038 35032 ft 494 kts 107°
2026-04-26 22:17 -17.13802 -64.75187 35031 ft 494 kts 108°
2026-04-26 22:18 -17.15901 -64.68351 35038 ft 495 kts 108°
2026-04-26 22:18 -17.17996 -64.61496 35038 ft 495 kts 107°
2026-04-26 22:19 -17.20086 -64.54637 35027 ft 495 kts 107°
2026-04-26 22:19 -17.22170 -64.47771 35012 ft 495 kts 107°
2026-04-26 22:20 -17.23912 -64.42076 35037 ft 495 kts 108°
2026-04-26 22:20 -17.26384 -64.34069 35020 ft 495 kts 108°
2026-04-26 22:21 -17.28496 -64.27210 35022 ft 495 kts 108°
2026-04-26 22:21 -17.30597 -64.20358 35008 ft 495 kts 107°
2026-04-26 22:22 -17.32700 -64.13491 35025 ft 495 kts 108°
2026-04-26 22:22 -17.34800 -64.06631 35009 ft 495 kts 108°
2026-04-26 22:23 -17.36896 -63.99760 35008 ft 496 kts 107°
2026-04-26 22:23 -17.38989 -63.92895 34994 ft 496 kts 107°
2026-04-26 22:24 -17.41082 -63.86018 34981 ft 496 kts 107°
2026-04-26 22:24 -17.43181 -63.79134 35000 ft 496 kts 107°
2026-04-26 22:25 -17.44923 -63.73410 34989 ft 496 kts 107°
2026-04-26 22:25 -17.47015 -63.66512 34990 ft 496 kts 107°
2026-04-26 22:26 -17.49101 -63.59625 34977 ft 496 kts 107°
2026-04-26 22:26 -17.51188 -63.52725 34994 ft 496 kts 107°
2026-04-26 22:27 -17.53270 -63.45828 34978 ft 496 kts 107°
2026-04-26 22:27 -17.55352 -63.38938 34975 ft 496 kts 107°
2026-04-26 22:28 -17.57422 -63.32083 34959 ft 497 kts 107°
2026-04-26 22:28 -17.59502 -63.25175 34964 ft 497 kts 107°
2026-04-26 22:29 -17.61577 -63.18262 34968 ft 497 kts 107°
2026-04-26 22:29 -17.63643 -63.11294 34965 ft 498 kts 106°
2026-04-26 22:30 -17.65556 -63.04365 34968 ft 498 kts 105°
2026-04-26 22:30 -17.67426 -62.97378 34966 ft 498 kts 105°
2026-04-26 22:31 -17.69321 -62.90401 34962 ft 498 kts 105°
2026-04-26 22:31 -17.71248 -62.83420 34957 ft 498 kts 106°
2026-04-26 22:32 -17.73175 -62.76441 34950 ft 498 kts 105°
2026-04-26 22:32 -17.75083 -62.69462 34951 ft 498 kts 105°
2026-04-26 22:33 -17.77944 -62.58978 34950 ft 498 kts 105°
2026-04-26 22:34 -17.79851 -62.51983 34947 ft 498 kts 105°
2026-04-26 22:34 -17.81752 -62.44998 34951 ft 498 kts 105°
2026-04-26 22:35 -17.83649 -62.37989 34955 ft 498 kts 105°
2026-04-26 22:35 -17.85548 -62.31001 34953 ft 498 kts 105°
2026-04-26 22:36 -17.87451 -62.23998 34949 ft 498 kts 105°
2026-04-26 22:36 -17.89347 -62.16990 34949 ft 498 kts 105°
2026-04-26 22:37 -17.91230 -62.10024 34952 ft 498 kts 105°
2026-04-26 22:37 -17.93113 -62.03019 34946 ft 498 kts 105°
2026-04-26 22:38 -17.95001 -61.96017 34947 ft 499 kts 105°
2026-04-26 22:38 -17.96895 -61.89008 34940 ft 498 kts 105°
2026-04-26 22:39 -17.98770 -61.82006 34945 ft 498 kts 105°
2026-04-26 22:39 -18.00652 -61.75000 34944 ft 498 kts 105°
2026-04-26 22:40 -18.02571 -61.68002 34944 ft 498 kts 106°
2026-04-26 22:40 -18.04491 -61.61013 34943 ft 497 kts 105°
2026-04-26 22:41 -18.06396 -61.54027 34948 ft 497 kts 105°
2026-04-26 22:41 -18.08293 -61.47040 34947 ft 497 kts 105°
2026-04-26 22:42 -18.10185 -61.40094 34939 ft 497 kts 106°
2026-04-26 22:42 -18.12138 -61.33109 34938 ft 497 kts 106°
2026-04-26 22:43 -18.14102 -61.26145 34942 ft 497 kts 106°
2026-04-26 22:43 -18.16062 -61.19165 34939 ft 498 kts 106°
2026-04-26 22:44 -18.18005 -61.12185 34935 ft 498 kts 106°
2026-04-26 22:44 -18.19946 -61.05192 34935 ft 498 kts 106°
2026-04-26 22:45 -18.21880 -60.98209 34934 ft 498 kts 106°
2026-04-26 22:45 -18.23817 -60.91220 34938 ft 498 kts 106°
2026-04-26 22:46 -18.25765 -60.84215 34949 ft 498 kts 106°
2026-04-26 22:46 -18.27709 -60.77224 34948 ft 498 kts 106°
2026-04-26 22:47 -18.29642 -60.70218 34949 ft 498 kts 106°
2026-04-26 22:47 -18.31588 -60.63219 34955 ft 498 kts 106°
2026-04-26 22:48 -18.33519 -60.56222 34957 ft 498 kts 105°
2026-04-26 22:48 -18.35440 -60.49213 34953 ft 498 kts 105°
2026-04-26 22:49 -18.37353 -60.42212 34950 ft 498 kts 105°
2026-04-26 22:49 -18.39268 -60.35202 34951 ft 498 kts 106°
2026-04-26 22:50 -18.41188 -60.28199 34951 ft 497 kts 106°
2026-04-26 22:50 -18.43096 -60.21206 34951 ft 497 kts 105°
2026-04-26 22:51 -18.45002 -60.14247 34950 ft 497 kts 106°
2026-04-26 22:51 -18.46927 -60.07246 34950 ft 497 kts 106°
2026-04-26 22:52 -18.48828 -60.00244 34949 ft 497 kts 105°
2026-04-26 22:52 -18.50745 -59.93194 34943 ft 497 kts 106°
2026-04-26 22:53 -18.52651 -59.86194 34944 ft 497 kts 105°
2026-04-26 22:53 -18.54542 -59.79194 34936 ft 497 kts 105°
2026-04-26 22:54 -18.56415 -59.72233 34941 ft 497 kts 105°
2026-04-26 22:54 -18.58314 -59.65236 34941 ft 497 kts 105°
2026-04-26 22:55 -18.60213 -59.58232 34938 ft 497 kts 105°
2026-04-26 22:55 -18.62093 -59.51212 34938 ft 497 kts 105°
2026-04-26 22:56 -18.63969 -59.44184 34931 ft 498 kts 105°
2026-04-26 22:56 -18.65856 -59.37155 34928 ft 498 kts 105°
2026-04-26 22:57 -18.67740 -59.30131 34930 ft 498 kts 105°
2026-04-26 22:57 -18.69620 -59.23093 34935 ft 499 kts 105°
2026-04-26 22:58 -18.71505 -59.16050 34936 ft 499 kts 105°
2026-04-26 22:58 -18.73384 -59.09002 34930 ft 499 kts 105°
2026-04-26 22:59 -18.75257 -59.02006 34929 ft 499 kts 105°
2026-04-26 22:59 -18.77126 -58.94961 34930 ft 498 kts 105°
2026-04-26 23:00 -18.78994 -58.87913 34931 ft 498 kts 105°
2026-04-26 23:00 -18.80854 -58.80868 34928 ft 498 kts 105°
2026-04-26 23:01 -18.82715 -58.73824 34927 ft 498 kts 105°
2026-04-26 23:01 -18.84582 -58.66778 34927 ft 498 kts 105°
2026-04-26 23:02 -18.86446 -58.59742 34926 ft 498 kts 105°
2026-04-26 23:02 -18.88358 -58.52714 34923 ft 498 kts 106°
2026-04-26 23:03 -18.90295 -58.45689 34923 ft 498 kts 106°
2026-04-26 23:03 -18.92217 -58.38661 34921 ft 498 kts 105°
2026-04-26 23:04 -18.94111 -58.31622 34922 ft 499 kts 105°
2026-04-26 23:04 -18.96005 -58.24574 34921 ft 499 kts 105°
2026-04-26 23:05 -18.97928 -58.17532 34920 ft 499 kts 106°
2026-04-26 23:05 -18.99884 -58.10486 34919 ft 499 kts 106°
2026-04-26 23:06 -19.01808 -58.03438 34920 ft 499 kts 105°
2026-04-26 23:06 -19.03716 -57.96390 34921 ft 499 kts 105°
2026-04-26 23:07 -19.05317 -57.90520 34922 ft 500 kts 105°
2026-04-26 23:07 -19.07229 -57.83447 34920 ft 500 kts 106°
2026-04-26 23:08 -19.09244 -57.76411 34921 ft 501 kts 108°
2026-04-26 23:08 -19.11588 -57.69469 34926 ft 501 kts 110°
2026-04-26 23:09 -19.14020 -57.62572 34926 ft 501 kts 110°
2026-04-26 23:09 -19.16381 -57.55612 34925 ft 501 kts 109°
2026-04-26 23:10 -19.18659 -57.48675 34928 ft 502 kts 109°
2026-04-26 23:10 -19.20933 -57.41699 34929 ft 502 kts 109°
2026-04-26 23:11 -19.23241 -57.34728 34925 ft 501 kts 109°
2026-04-26 23:11 -19.25569 -57.27769 34925 ft 502 kts 109°
2026-04-26 23:12 -19.27879 -57.20808 34924 ft 502 kts 109°
2026-04-26 23:12 -19.30166 -57.13817 34925 ft 502 kts 109°
2026-04-26 23:13 -19.32464 -57.06834 34922 ft 502 kts 109°
2026-04-26 23:13 -19.34773 -56.99860 34923 ft 503 kts 110°
2026-04-26 23:14 -19.37836 -56.93200 34924 ft 503 kts 117°
2026-04-26 23:14 -19.41068 -56.86622 34929 ft 503 kts 117°
2026-04-26 23:15 -19.44296 -56.80040 34926 ft 503 kts 117°
2026-04-26 23:15 -19.47529 -56.73455 34926 ft 503 kts 117°
2026-04-26 23:16 -19.50759 -56.66862 34929 ft 504 kts 117°
2026-04-26 23:16 -19.53976 -56.60260 34934 ft 504 kts 117°
2026-04-26 23:17 -19.57167 -56.53713 34784 ft 497 kts 117°
2026-04-26 23:17 -19.58764 -56.50444 34403 ft 491 kts 117°
2026-04-26 23:17 -19.60318 -56.47277 33890 ft 490 kts 117°
2026-04-26 23:17 -19.61907 -56.44027 33202 ft 491 kts 117°
2026-04-26 23:18 -19.63459 -56.40848 32517 ft 492 kts 117°
2026-04-26 23:18 -19.65032 -56.37621 31819 ft 493 kts 117°
2026-04-26 23:18 -19.66608 -56.34385 31127 ft 495 kts 116°
2026-04-26 23:18 -19.68185 -56.31137 30431 ft 496 kts 116°
2026-04-26 23:19 -19.69768 -56.27878 29691 ft 498 kts 116°
2026-04-26 23:19 -19.71355 -56.24607 28851 ft 499 kts 116°
2026-04-26 23:19 -19.72942 -56.21346 28261 ft 495 kts 116°
2026-04-26 23:19 -19.74518 -56.18107 27704 ft 491 kts 116°
2026-04-26 23:20 -19.76073 -56.14907 27123 ft 486 kts 116°
2026-04-26 23:20 -19.77618 -56.11724 26550 ft 482 kts 116°
2026-04-26 23:20 -19.79145 -56.08576 25989 ft 478 kts 116°
2026-04-26 23:20 -19.80664 -56.05442 25425 ft 475 kts 116°
2026-04-26 23:21 -19.82170 -56.02331 24881 ft 471 kts 116°
2026-04-26 23:21 -19.83663 -55.99249 24351 ft 468 kts 116°
2026-04-26 23:21 -19.85141 -55.96195 23827 ft 464 kts 116°
2026-04-26 23:21 -19.86617 -55.93145 23269 ft 460 kts 116°
2026-04-26 23:22 -19.88070 -55.90137 22689 ft 456 kts 116°
2026-04-26 23:22 -19.89496 -55.87181 22118 ft 452 kts 116°
2026-04-26 23:22 -19.90923 -55.84216 21582 ft 448 kts 116°
2026-04-26 23:22 -19.92329 -55.81293 21063 ft 444 kts 116°
2026-04-26 23:23 -19.93733 -55.78381 20556 ft 440 kts 116°
2026-04-26 23:23 -19.95121 -55.75497 20081 ft 436 kts 116°
2026-04-26 23:23 -19.96494 -55.72646 19625 ft 432 kts 117°
2026-04-26 23:23 -19.97856 -55.69816 19199 ft 429 kts 117°
2026-04-26 23:24 -19.99213 -55.66996 18735 ft 426 kts 117°
2026-04-26 23:24 -20.00547 -55.64224 18523 ft 415 kts 118°
2026-04-26 23:24 -20.02025 -55.61645 18407 ft 401 kts 127°
2026-04-26 23:24 -20.03776 -55.59388 18155 ft 392 kts 133°
2026-04-26 23:25 -20.05576 -55.57244 17747 ft 387 kts 133°
2026-04-26 23:25 -20.07363 -55.55116 17270 ft 384 kts 133°
2026-04-26 23:25 -20.09133 -55.53008 16835 ft 381 kts 133°
2026-04-26 23:25 -20.10872 -55.50938 16395 ft 377 kts 133°
2026-04-26 23:26 -20.12605 -55.48868 15964 ft 374 kts 133°
2026-04-26 23:26 -20.14328 -55.46802 15529 ft 371 kts 133°
2026-04-26 23:26 -20.16038 -55.44753 15094 ft 368 kts 133°
2026-04-26 23:26 -20.17730 -55.42728 14668 ft 365 kts 133°
2026-04-26 23:27 -20.19411 -55.40717 14251 ft 362 kts 133°
2026-04-26 23:27 -20.21085 -55.38714 13816 ft 360 kts 133°
2026-04-26 23:27 -20.22743 -55.36731 13371 ft 358 kts 133°
2026-04-26 23:27 -20.24358 -55.34720 12892 ft 356 kts 127°
2026-04-26 23:28 -20.25677 -55.32487 12445 ft 355 kts 117°
2026-04-26 23:28 -20.26751 -55.30131 11988 ft 353 kts 116°
2026-04-26 23:28 -20.27822 -55.27782 11536 ft 351 kts 116°
2026-04-26 23:28 -20.28891 -55.25451 11111 ft 349 kts 116°
2026-04-26 23:29 -20.29957 -55.23139 10700 ft 346 kts 116°
2026-04-26 23:29 -20.31000 -55.20874 10293 ft 344 kts 116°
2026-04-26 23:29 -20.32049 -55.18593 9987 ft 341 kts 115°
2026-04-26 23:29 -20.33095 -55.16315 9915 ft 343 kts 115°
2026-04-26 23:30 -20.34147 -55.14028 9925 ft 342 kts 116°
2026-04-26 23:30 -20.35169 -55.11808 9931 ft 325 kts 116°
2026-04-26 23:30 -20.36140 -55.09691 9938 ft 309 kts 115°
2026-04-26 23:30 -20.37063 -55.07678 9929 ft 296 kts 115°
2026-04-26 23:31 -20.37959 -55.05722 9930 ft 293 kts 115°
2026-04-26 23:31 -20.38854 -55.03771 9869 ft 294 kts 117°
2026-04-26 23:31 -20.39974 -55.01954 9756 ft 294 kts 130°
2026-04-26 23:31 -20.41400 -55.00402 9629 ft 293 kts 137°
2026-04-26 23:32 -20.42878 -54.98903 9307 ft 295 kts 137°
2026-04-26 23:32 -20.44351 -54.97403 9094 ft 288 kts 137°
2026-04-26 23:32 -20.45759 -54.95965 8848 ft 270 kts 137°
2026-04-26 23:32 -20.47069 -54.94626 8552 ft 254 kts 137°
2026-04-26 23:33 -20.48326 -54.93340 8198 ft 246 kts 137°
2026-04-26 23:33 -20.49532 -54.92105 7900 ft 237 kts 137°
2026-04-26 23:33 -20.50715 -54.90895 7466 ft 235 kts 137°
2026-04-26 23:33 -20.51888 -54.89697 7021 ft 233 kts 137°
2026-04-26 23:34 -20.53051 -54.88510 6548 ft 229 kts 137°
2026-04-26 23:34 -20.54166 -54.87327 6165 ft 218 kts 134°
2026-04-26 23:34 -20.55157 -54.86189 5865 ft 208 kts 133°
2026-04-26 23:34 -20.56129 -54.85046 5500 ft 203 kts 133°
2026-04-26 23:35 -20.57035 -54.83976 5320 ft 191 kts 133°
2026-04-26 23:35 -20.57918 -54.82937 5206 ft 188 kts 133°
2026-04-26 23:35 -20.58744 -54.81838 5113 ft 188 kts 118°
2026-04-26 23:35 -20.59081 -54.80506 5023 ft 186 kts 90°
2026-04-26 23:36 -20.58848 -54.79193 4844 ft 181 kts 63°
2026-04-26 23:36 -20.58126 -54.78139 4572 ft 175 kts 38°
2026-04-26 23:36 -20.57220 -54.77274 4315 ft 175 kts 39°
2026-04-26 23:36 -20.56323 -54.76403 4002 ft 174 kts 39°
2026-04-26 23:37 -20.55430 -54.75537 3756 ft 174 kts 39°
2026-04-26 23:37 -20.54533 -54.74670 3521 ft 175 kts 39°
2026-04-26 23:37 -20.53632 -54.73800 3313 ft 174 kts 39°
2026-04-26 23:37 -20.52733 -54.72932 3093 ft 174 kts 39°
2026-04-26 23:38 -20.51836 -54.72066 2875 ft 173 kts 39°
2026-04-26 23:38 -20.50974 -54.71233 2674 ft 164 kts 40°
2026-04-26 23:38 -20.50142 -54.70430 2469 ft 158 kts 39°
2026-04-26 23:38 -20.49334 -54.69651 2261 ft 155 kts 40°
2026-04-26 23:39 -20.48537 -54.68882 2032 ft 154 kts 40°
2026-04-26 23:39 -20.47748 -54.68118 1865 ft 152 kts 37°
2026-04-26 23:39 -20.47025 -54.67427 1838 ft 111 kts 42°
2026-04-26 23:39 -20.46674 -54.67091 1839 ft 24 kts 41°
2026-04-26 23:40 -20.46620 -54.67040 1840 ft 13 kts 43°
2026-04-26 23:40 -20.46548 -54.66967 1839 ft 16 kts 42°
2026-04-26 23:40 -20.46463 -54.66884 1837 ft 18 kts 43°
2026-04-26 23:40 -20.46370 -54.66794 1838 ft 18 kts 43°
2026-04-26 23:41 -20.46272 -54.66699 1837 ft 20 kts 40°
2026-04-26 23:41 -20.46169 -54.66608 1838 ft 14 kts 30°
2026-04-26 23:41 -20.46095 -54.66623 1839 ft 11 kts 339°
2026-04-26 23:41 -20.46023 -54.66663 1839 ft 12 kts 316°
2026-04-26 23:42 -20.45945 -54.66687 1839 ft 12 kts 343°
2026-04-26 23:42 -20.45839 -54.66811 1839 ft 14 kts 267°
2026-04-26 23:42 -20.45847 -54.66901 1839 ft 10 kts 266°
2026-04-26 23:43 -20.45832 -54.66921 1839 ft 2 kts 328°
2026-04-26 23:43 -20.45812 -54.66928 1839 ft 4 kts 347°
2026-04-26 23:43 -20.45805 -54.66928 1839 ft 1 kts 351°
2026-04-26 23:43 -20.45797 -54.66930 1839 ft 0 kts 349°